Weather reports worldwide

Advertisment
Stonyhurst, United Kingdom (99060): temperature & dewpoint: 24.09.2020 16:00:00 - 30.09.2020 16:00:00 (BST)Stonyhurst, United Kingdom (99060): precipitation: 24.09.2020 16:00:00 - 30.09.2020 16:00:00 (BST)
Date & Time tt [°C] td [°C] rr [mm]
30.09.2020 16:00:00 12,2 11,5 -
30.09.2020 15:00:00 12,1 11,1 1,0
30.09.2020 14:00:00 12,2 10,7 0,4
30.09.2020 13:00:00 13,1 11,1 0,0
30.09.2020 12:00:00 11,1 9,6 0,4
30.09.2020 11:00:00 11,1 9,5 0,8
30.09.2020 10:00:00 10,6 8,7 0,6
30.09.2020 09:00:00 10,0 8,5 1,4
30.09.2020 08:00:00 9,9 8,6 2,2
30.09.2020 07:00:00 9,7 8,3 0,6
30.09.2020 06:00:00 9,8 7,8 0,0
30.09.2020 05:00:00 9,4 7,4 0,0
30.09.2020 04:00:00 8,7 7,7 0,0
30.09.2020 03:00:00 8,1 7,4 0,0
30.09.2020 02:00:00 8,3 7,3 0,0
30.09.2020 01:00:00 8,9 7,4 0,0
30.09.2020 00:00:00 9,7 7,9 0,0
29.09.2020 23:00:00 10,3 8,1 0,0
29.09.2020 22:00:00 11,1 8,2 0,0
29.09.2020 21:00:00 11,0 8,2 0,0
29.09.2020 20:00:00 11,0 7,4 0,0
29.09.2020 19:00:00 11,3 6,8 0,0
29.09.2020 18:00:00 13,7 6,9 -
29.09.2020 17:00:00 14,2 7,0 0,0
29.09.2020 16:00:00 14,6 7,7 0,0
29.09.2020 15:00:00 14,1 7,8 -
29.09.2020 14:00:00 15,1 6,8 0,0
29.09.2020 13:00:00 14,6 8,2 0,0
29.09.2020 12:00:00 12,2 10,2 0,0
29.09.2020 11:00:00 9,3 9,3 0,0
29.09.2020 10:00:00 7,0 7,0 0,0
29.09.2020 09:00:00 5,7 5,6 0,0
29.09.2020 08:00:00 5,9 5,9 0,0
29.09.2020 07:00:00 6,6 6,5 0,0
29.09.2020 06:00:00 7,1 7,1 0,0
29.09.2020 05:00:00 7,5 7,4 0,2
29.09.2020 04:00:00 6,9 6,7 0,0
29.09.2020 03:00:00 7,5 7,3 0,0
29.09.2020 02:00:00 8,4 8,2 0,0
29.09.2020 01:00:00 9,6 9,2 0,0
29.09.2020 00:00:00 11,1 10,9 0,0
28.09.2020 23:00:00 11,8 11,6 0,0
28.09.2020 22:00:00 11,8 11,6 0,0
28.09.2020 21:00:00 12,3 12,0 0,0
28.09.2020 20:00:00 12,2 11,9 0,2
28.09.2020 19:00:00 12,3 11,9 0,2
28.09.2020 18:00:00 12,6 12,1 0,4
28.09.2020 17:00:00 12,9 11,5 0,0
28.09.2020 16:00:00 13,4 10,5 0,0
28.09.2020 15:00:00 13,5 9,9 0,0
28.09.2020 14:00:00 12,8 9,0 0,0
28.09.2020 13:00:00 11,3 8,3 0,0
28.09.2020 12:00:00 9,9 7,4 0,0
28.09.2020 11:00:00 8,4 6,9 0,0
28.09.2020 10:00:00 6,7 6,1 0,0
28.09.2020 09:00:00 4,9 4,7 0,0
28.09.2020 08:00:00 3,8 3,6 0,0
28.09.2020 07:00:00 2,5 2,2 0,0
28.09.2020 06:00:00 2,3 1,9 0,0
28.09.2020 05:00:00 2,9 2,5 0,0
28.09.2020 04:00:00 2,9 2,6 0,0
28.09.2020 03:00:00 2,5 1,8 0,0
28.09.2020 02:00:00 3,7 3,2 0,0
28.09.2020 01:00:00 4,0 3,4 0,0
28.09.2020 00:00:00 4,4 3,6 0,0
27.09.2020 23:00:00 4,7 3,6 0,0
27.09.2020 22:00:00 5,9 3,9 0,0
27.09.2020 21:00:00 5,9 4,1 0,0
27.09.2020 20:00:00 8,0 3,9 0,0
27.09.2020 19:00:00 9,1 4,0 0,0
27.09.2020 18:00:00 11,1 5,1 0,0
27.09.2020 17:00:00 12,6 4,9 0,0
27.09.2020 16:00:00 14,1 5,4 0,0
27.09.2020 15:00:00 13,6 5,1 0,0
27.09.2020 14:00:00 13,5 5,8 -
27.09.2020 13:00:00 11,5 4,0 0,0
27.09.2020 12:00:00 10,8 4,9 0,0
27.09.2020 11:00:00 9,9 4,6 0,0
27.09.2020 10:00:00 8,6 4,0 0,0
27.09.2020 09:00:00 6,4 4,1 0,0
27.09.2020 08:00:00 3,9 2,7 0,0
27.09.2020 07:00:00 5,4 2,5 0,0
27.09.2020 06:00:00 5,0 2,6 0,0
27.09.2020 05:00:00 5,7 2,9 0,0
27.09.2020 04:00:00 5,3 2,4 0,0
27.09.2020 03:00:00 6,4 2,9 0,0
27.09.2020 02:00:00 7,0 3,1 0,0
27.09.2020 01:00:00 7,3 3,1 0,0
27.09.2020 00:00:00 8,5 3,4 0,0
26.09.2020 23:00:00 9,2 3,5 0,0
26.09.2020 22:00:00 8,9 3,5 0,0
26.09.2020 21:00:00 9,4 3,6 0,0
26.09.2020 20:00:00 10,4 3,5 0,0
26.09.2020 19:00:00 11,0 5,1 0,0
26.09.2020 18:00:00 11,6 5,1 0,0
26.09.2020 17:00:00 11,9 5,0 0,0
26.09.2020 16:00:00 11,3 5,3 0,0
26.09.2020 15:00:00 10,9 4,8 0,0
26.09.2020 14:00:00 11,0 4,5 0,0
26.09.2020 13:00:00 10,8 3,9 0,0
26.09.2020 12:00:00 10,6 4,6 0,0
26.09.2020 11:00:00 9,2 2,7 0,0
26.09.2020 10:00:00 7,9 1,9 0,0
26.09.2020 09:00:00 6,8 1,2 0,0
26.09.2020 08:00:00 5,3 0,7 0,0
26.09.2020 07:00:00 4,7 0,0 0,0
26.09.2020 06:00:00 3,3 -0,2 0,0
26.09.2020 05:00:00 5,5 -0,1 0,0
26.09.2020 04:00:00 5,3 0,3 0,0
26.09.2020 03:00:00 6,3 0,9 0,0
26.09.2020 02:00:00 6,0 1,9 0,0
26.09.2020 01:00:00 6,3 3,0 0,0
26.09.2020 00:00:00 6,1 3,1 0,0
25.09.2020 23:00:00 6,7 3,7 0,0
25.09.2020 22:00:00 8,0 4,0 0,0
25.09.2020 21:00:00 9,0 4,5 0,0
25.09.2020 20:00:00 9,6 4,5 0,0
25.09.2020 19:00:00 10,0 5,0 0,0
25.09.2020 18:00:00 11,6 4,5 0,0
25.09.2020 17:00:00 12,0 4,8 0,0
25.09.2020 16:00:00 12,1 4,7 0,0
25.09.2020 15:00:00 12,5 4,5 0,0
25.09.2020 14:00:00 12,6 4,6 0,0
25.09.2020 13:00:00 11,9 3,6 0,0
25.09.2020 12:00:00 11,2 4,4 0,0
25.09.2020 11:00:00 10,0 4,4 0,0
25.09.2020 10:00:00 9,0 4,1 0,0
25.09.2020 09:00:00 8,4 4,0 0,0
25.09.2020 08:00:00 7,2 3,7 0,0
25.09.2020 07:00:00 6,7 3,8 0,0
25.09.2020 06:00:00 6,6 3,7 0,0
25.09.2020 05:00:00 6,4 3,3 0,0
25.09.2020 04:00:00 7,3 3,4 0,0
25.09.2020 03:00:00 8,0 4,1 0,0
25.09.2020 02:00:00 7,3 4,6 0,0
25.09.2020 01:00:00 7,5 5,4 0,0
25.09.2020 00:00:00 7,5 6,3 0,0
24.09.2020 23:00:00 7,2 5,8 0,0
24.09.2020 22:00:00 6,9 5,4 0,0
24.09.2020 21:00:00 7,7 6,4 1,0
24.09.2020 20:00:00 8,0 5,9 0,0
24.09.2020 19:00:00 8,6 6,8 0,0
24.09.2020 18:00:00 9,2 7,0 0,0
24.09.2020 17:00:00 9,2 6,2 0,2
24.09.2020 16:00:00 10,4 6,6 0,0

tt = temperature
td = dewpoint
rr = precipitation

Next stations